Regional Weather Roundup
Issued by NWS Little Rock, AR

Home | Current Version | Previous Version | Graphics & Text | Print | Product List | Glossary On
Versions: 1 2 3 4 5 6 7 8 9 10 11 12 13 14 15 16 17 18 19 20 21 22 23 24 25 26 27 28 29 30 31 32 33 34 35 36 37 38 39 40 41 42 43 44 45 46 47 48 49 50
000
ASUS44 KLZK 261105
RWRLZK

WEATHER ROUNDUP FOR ARKANSAS
NATIONAL WEATHER SERVICE LITTLE ROCK AR
600 AM CDT SUN MAR 26 2017

NOTE: "FAIR" INDICATES FEW OR NO CLOUDS BELOW 12,000 FEET WITH NO
SIGNIFICANT WEATHER AND/OR OBSTRUCTIONS TO VISIBILITY.

ARZ001-003-010-029-261200-
NORTHWEST ARKANSAS

CITY           SKY/WX    TMP DP  RH WIND       PRES   REMARKS
FAYETTEVILLE   CLEAR     42  42 100 CALM      29.92S FOG
FORT SMITH     CLEAR     45  43  93 CALM      29.92S
HARRISON       CLOUDY    48  45  89 CALM      29.92R
BENTONVILLE    CLOUDY    45  41  87 CALM      29.93S
ROGERS         CLOUDY    45  44  97 NW5       29.93S
SILOAM SPGS    CLOUDY    41  37  87 NE3       29.92S VSB 1/2
HIGHFILL       FOG       42  41  96 CALM      29.92S VSB 1/2
SPRINGDALE     CLOUDY    45  45 100 CALM      29.94  FOG
$$

ARZ004-005-016-261200-
NORTH CENTRAL ARKANSAS

CITY           SKY/WX    TMP DP  RH WIND       PRES   REMARKS
BATESVILLE     CLOUDY    52  46  82 CALM      29.94R
FLIPPIN        CLOUDY    50  43  76 CALM      29.91R
MTN HOME       CLOUDY    49  45  86 CALM      29.91R
$$

ARZ040-041-261200-
WEST CENTRAL ARKANSAS

CITY           SKY/WX    TMP DP  RH WIND       PRES   REMARKS
MENA           PTCLDY    45  43  93 CALM      29.93R
MOUNT IDA      CLEAR     44  42  93 CALM      29.91R
$$

ARZ009-017-025-026-028-261200-
NORTHEAST ARKANSAS

CITY           SKY/WX    TMP DP  RH WIND       PRES   REMARKS
CORNING        CLOUDY    54  50  87 W6        29.93R
JONESBORO      CLOUDY    53  51  93 CALM      29.93R
NEWPORT        CLOUDY    54  50  86 CALM      29.94
WALNUT RIDGE   CLOUDY    52  46  82 S5        29.93R
BLYTHEVILLE    CLOUDY    55  54  96 CALM      29.93R
$$

ARZ022-023-033-042-044-261200-
CENTRAL ARKANSAS

CITY           SKY/WX    TMP DP  RH WIND       PRES   REMARKS
LITTLE ROCK    CLEAR     46  46 100 CALM      29.95R
JACKSONVILLE   CLEAR     45  44  99 CALM      29.94R
CONWAY           N/A     46  46 100 CALM      29.93R
SEARCY         PTCLDY    45  45 100 CALM      29.96R
HOT SPRINGS    PTCLDY    46  45  96 CALM      29.94R
RUSSELLVILLE   CLEAR     45  44  97 CALM      29.93R
CLINTON        CLOUDY    46  46 100 CALM      29.94R
$$

ARZ036-261200-
EAST ARKANSAS

CITY           SKY/WX    TMP DP  RH WIND       PRES   REMARKS
WEST MEMPHIS   CLOUDY    54  52  93 W3        29.92R
$$

ARZ050-053-066-070-073-261200-
SOUTHWEST ARKANSAS

CITY           SKY/WX    TMP DP  RH WIND       PRES   REMARKS
ARKADELPHIA    FAIR      49  48  97 CALM      29.95R
CAMDEN         FOG       48  46  93 CALM      29.94S VSB 1
TEXARKANA      PTCLDY    49  48  97 CALM      29.92R
EL DORADO      CLEAR     48  47  96 CALM      29.93S
DE QUEEN       CLEAR     44  44 100 E5        29.90S FOG
$$

ARZ056-057-069-261200-
SOUTHEAST ARKANSAS

CITY           SKY/WX    TMP DP  RH WIND       PRES   REMARKS
PINE BLUFF     CLEAR     50  48  93 CALM      29.95R
STUTTGART      CLEAR     50  41  71 SW3       29.96R
MONTICELLO     CLEAR     49  47  93 CALM      29.94R

$$





USA.gov is the U.S. government's official web portal to all federal, state and local government web resources and services.